Change the Weather History Date:

Thursday, April 4, 2013

  Actual Average (KBNO) Record (KBNO)
Temperature  
Mean Temperature 52 °F 41 °F  
Max Temperature 62 °F 54 °F 74 °F (2000)
Min Temperature 44 °F 28 °F 10 °F (2010)
Degree Days  
Heating Degree Days 12 24  
Month to date heating degree days 96  
Since 1 July heating degree days 6481  
Cooling Degree Days 0 0  
Month to date cooling degree days 0  
Year to date cooling degree days 0  
Growing Degree Days 2 (Base 50)    
Moisture  
Dew Point 40 °F    
Average Humidity 61    
Maximum Humidity 92    
Minimum Humidity 37    
Precipitation  
Precipitation 0.16 in 0.03 in 0.20 in (2012)
Month to date precipitation 0.12  
Year to date precipitation 3.42  
Sea Level Pressure  
Sea Level Pressure 29.89 in    
Wind  
Wind Speed 10 mph (SSE)    
Max Wind Speed 31 mph    
Max Gust Speed 40 mph    
Visibility 10 miles    
Events Rain , Thunderstorm    
T = Trace of Precipitation, MM = Missing Value Source: NWS Daily Summary

Daily Weather History Graph

Daily Weather History Graph

Search for Another Location

Airport or City:

Trip Planner

Search our weather history database for the weather conditions in past years. The results will help you decide how hot, cold, wet, or windy it might be!

Date:

Astronomy

Apr. 04, 2013 Rise Set
Actual Time 6:30 AM PDT 7:27 PM PDT
Civil Twilight 6:01 AM PDT 7:56 PM PDT
Nautical Twilight 5:26 AM PDT 8:32 PM PDT
Astronomical Twilight 4:49 AM PDT 9:09 PM PDT
Moon 3:13 AM PDT (4/4) 1:38 PM PDT (4/4)
Length of Visible Light 13h 55m
Length of Day
12h 56m
Waning Crescent, 32% of the Moon is Illuminated
Apr 4
Waning Crescent
Apr 10
New
Apr 18
First Quarter
Apr 25
Full
May 2
Last Quarter

Hourly Weather History & Observations

Time (PDT) Temp. Windchill Dew Point Humidity Pressure Visibility Wind Dir Wind Speed Gust Speed Precip Events Conditions
12:15 AM 50.9 °F - 37.9 °F 61% 30.00 in 10.0 mi ESE 9.2 mph - N/A   Clear
12:35 AM 50.7 °F - 37.8 °F 61% 30.00 in 10.0 mi East 6.9 mph - N/A   Mostly Cloudy
12:55 AM 50.5 °F - 37.6 °F 61% 30.00 in 10.0 mi ESE 8.1 mph - N/A   Overcast
1:15 AM 50.5 °F - 37.9 °F 62% 29.99 in 10.0 mi ESE 9.2 mph - N/A   Overcast
1:35 AM 50.5 °F - 38.7 °F 64% 29.97 in 10.0 mi East 9.2 mph - N/A   Overcast
1:55 AM 50.5 °F - 38.5 °F 63% 29.97 in 10.0 mi ESE 6.9 mph - N/A   Overcast
2:15 AM 51.4 °F - 37.9 °F 60% 29.97 in 10.0 mi East 6.9 mph - N/A   Mostly Cloudy
2:35 AM 50.7 °F - 37.9 °F 62% 29.97 in 10.0 mi East 6.9 mph - N/A   Scattered Clouds
2:55 AM 51.1 °F - 37.4 °F 60% 29.96 in 10.0 mi ESE 6.9 mph - N/A   Scattered Clouds
3:15 AM 51.4 °F - 37.4 °F 59% 29.95 in 10.0 mi SE 6.9 mph - N/A   Overcast
3:35 AM 51.3 °F - 37.4 °F 59% 29.94 in 10.0 mi ENE 8.1 mph - N/A   Overcast
3:55 AM 50.2 °F - 38.1 °F 63% 29.94 in 10.0 mi SE 8.1 mph - N/A   Overcast
4:15 AM 51.4 °F - 37.6 °F 59% 29.93 in 10.0 mi East 8.1 mph - N/A   Scattered Clouds
4:35 AM 50.5 °F - 37.8 °F 62% 29.92 in 10.0 mi East 6.9 mph - N/A   Mostly Cloudy
4:55 AM 49.3 °F - 37.9 °F 65% 29.92 in 10.0 mi SE 8.1 mph - N/A   Mostly Cloudy
5:15 AM 51.8 °F - 36.7 °F 56% 29.90 in 10.0 mi East 6.9 mph - N/A   Mostly Cloudy
5:35 AM 49.6 °F - 37.6 °F 63% 29.90 in 10.0 mi ESE 4.6 mph - N/A   Mostly Cloudy
5:55 AM 51.1 °F - 37.2 °F 59% 29.88 in 10.0 mi ESE 8.1 mph - N/A   Overcast
6:15 AM 50.5 °F - 37.2 °F 60% 29.88 in 10.0 mi East 5.8 mph - N/A   Scattered Clouds
6:35 AM 49.5 °F - 38.1 °F 65% 29.88 in 10.0 mi Calm Calm - N/A   Mostly Cloudy
6:55 AM 54.9 °F - 36.1 °F 49% 29.88 in 10.0 mi ESE 3.5 mph - N/A   Mostly Cloudy
7:15 AM 52.9 °F - 36.7 °F 54% 29.87 in 10.0 mi East 8.1 mph - N/A   Overcast
7:35 AM 53.8 °F - 36.9 °F 53% 29.87 in 10.0 mi East 5.8 mph - N/A   Overcast
7:55 AM 54.0 °F - 37.6 °F 54% 29.86 in 10.0 mi Calm Calm - N/A   Overcast
8:15 AM 55.6 °F - 38.3 °F 52% 29.86 in 10.0 mi East 5.8 mph - N/A   Overcast
8:35 AM 56.3 °F - 37.2 °F 49% 29.87 in 10.0 mi East 3.5 mph - N/A   Mostly Cloudy
8:55 AM 56.7 °F - 38.1 °F 50% 29.86 in 10.0 mi ENE 4.6 mph - N/A   Overcast
9:35 AM 60.4 °F - 37.9 °F 43% 29.87 in 10.0 mi South 12.7 mph - N/A   Mostly Cloudy
9:55 AM 61.2 °F - 36.3 °F 40% 29.87 in 10.0 mi SSW 12.7 mph 18.4 mph N/A   Mostly Cloudy
10:15 AM 61.0 °F - 36.5 °F 40% 29.87 in 10.0 mi SSW 13.8 mph 19.6 mph N/A   Mostly Cloudy
10:35 AM 60.4 °F - 37.4 °F 42% 29.88 in 10.0 mi WSW 8.1 mph - N/A   Mostly Cloudy
10:55 AM 60.8 °F - 34.5 °F 37% 29.88 in 10.0 mi SSW 13.8 mph 25.3 mph N/A   Overcast
11:15 AM 61.5 °F - 35.8 °F 38% 29.89 in 10.0 mi SSW 15.0 mph 23.0 mph N/A   Overcast
11:35 AM 60.1 °F - 35.2 °F 39% 29.90 in 10.0 mi SW 19.6 mph 26.5 mph N/A   Overcast
11:55 AM 53.2 °F - 40.6 °F 62% 29.92 in 7.0 mi SSW 23.0 mph 36.8 mph N/A Rain Light Rain
12:15 PM 51.6 °F - 43.5 °F 74% 29.92 in 7.0 mi South 20.7 mph 40.3 mph 0.01 in Rain Light Rain
12:35 PM 52.3 °F - 43.7 °F 72% 29.91 in 10.0 mi South 21.9 mph 33.4 mph 0.01 in Rain Light Rain
12:55 PM 52.0 °F - 44.4 °F 75% 29.90 in 10.0 mi South 20.7 mph 28.8 mph 0.01 in Rain Light Rain
1:15 PM 53.2 °F - 44.8 °F 73% 29.88 in 10.0 mi South 21.9 mph 32.2 mph N/A   Mostly Cloudy
1:35 PM 54.9 °F - 44.6 °F 68% 29.87 in 10.0 mi South 25.3 mph 31.1 mph N/A   Mostly Cloudy
1:55 PM 57.0 °F - 44.1 °F 62% 29.86 in 10.0 mi South 18.4 mph 29.9 mph N/A   Mostly Cloudy
2:15 PM 57.4 °F - 43.7 °F 60% 29.85 in 10.0 mi South 18.4 mph - N/A   Mostly Cloudy
2:35 PM 58.1 °F - 43.3 °F 58% 29.85 in 10.0 mi SSE 8.1 mph 17.3 mph N/A   Overcast
2:55 PM 60.8 °F - 43.9 °F 54% 29.84 in 10.0 mi SE 5.8 mph 26.5 mph N/A   Mostly Cloudy
3:15 PM 59.7 °F - 42.3 °F 52% 29.83 in 10.0 mi South 6.9 mph 23.0 mph N/A   Mostly Cloudy
3:35 PM 61.5 °F - 42.8 °F 50% 29.83 in 10.0 mi South 15.0 mph 23.0 mph N/A   Mostly Cloudy
3:55 PM 60.8 °F - 42.1 °F 50% 29.82 in 10.0 mi SW 19.6 mph 25.3 mph N/A   Overcast
4:15 PM 61.2 °F - 41.5 °F 48% 29.82 in 10.0 mi South 16.1 mph 25.3 mph N/A   Mostly Cloudy
4:35 PM 59.4 °F - 39.4 °F 48% 29.82 in 10.0 mi SSW 27.6 mph 38.0 mph N/A   Mostly Cloudy
4:55 PM 59.4 °F - 42.3 °F 53% 29.82 in 10.0 mi SW 13.8 mph - N/A   Scattered Clouds
5:15 PM 59.0 °F - 42.6 °F 55% 29.80 in 10.0 mi South 20.7 mph 25.3 mph N/A   Clear
5:35 PM 58.5 °F - 41.2 °F 53% 29.80 in 10.0 mi SSW 17.3 mph - N/A   Clear
5:55 PM 59.5 °F - 40.1 °F 49% 29.79 in 10.0 mi SSW 20.7 mph 26.5 mph N/A   Scattered Clouds
6:15 PM 59.2 °F - 38.5 °F 46% 29.80 in 10.0 mi SSW 23.0 mph 29.9 mph N/A   Scattered Clouds
6:35 PM 54.3 °F - 42.3 °F 64% 29.83 in 10.0 mi WSW 31.1 mph 40.3 mph N/A Rain Rain
6:55 PM 50.4 °F - 42.8 °F 75% 29.85 in 10.0 mi West 11.5 mph - 0.01 in Rain Light Rain
7:15 PM 50.5 °F - 42.3 °F 73% 29.84 in 10.0 mi NW 5.8 mph - N/A   Overcast
7:35 PM 49.8 °F - 42.3 °F 75% 29.84 in 10.0 mi NNW 10.4 mph - N/A   Overcast
7:55 PM 50.0 °F - 42.1 °F 74% 29.85 in 10.0 mi WNW 4.6 mph - N/A   Overcast
8:15 PM 49.1 °F - 42.1 °F 77% 29.86 in 10.0 mi NNW 3.5 mph - N/A   Mostly Cloudy
8:35 PM 48.7 °F - 41.5 °F 76% 29.86 in 10.0 mi Calm Calm - N/A   Scattered Clouds
8:55 PM 47.1 °F - 41.0 °F 79% 29.87 in 10.0 mi Calm Calm - N/A   Mostly Cloudy
9:15 PM 50.2 °F - 41.4 °F 72% 29.88 in 10.0 mi Calm Calm - N/A   Overcast
9:35 PM 49.3 °F - 42.8 °F 78% 29.88 in 10.0 mi Calm Calm - N/A Thunderstorm Unknown
9:55 PM 46.4 °F 39.5 °F 42.4 °F 86% 29.91 in 5.0 mi WSW 17.3 mph 24.2 mph 0.12 in Rain Rain
10:15 PM 45.9 °F 42.9 °F 41.9 °F 86% 29.91 in 10.0 mi SSW 5.8 mph - 0.02 in Rain Light Rain
10:35 PM 44.8 °F - 42.6 °F 92% 29.91 in 10.0 mi Calm Calm - 0.02 in   Overcast
10:55 PM 46.2 °F - 41.7 °F 84% 29.92 in 10.0 mi Calm Calm - 0.02 in   Mostly Cloudy
11:15 PM 47.3 °F - 40.6 °F 78% 29.91 in 10.0 mi NNW 4.6 mph - N/A   Overcast
11:35 PM 46.8 °F - 40.6 °F 79% 29.91 in 10.0 mi Calm Calm - N/A   Scattered Clouds
11:55 PM 45.5 °F - 40.8 °F 84% 29.91 in 10.0 mi Calm Calm - N/A   Scattered Clouds